User: anonymous   Login
Location: Oberkirch
(48.5323°N, 8.0787°E)
Time: 00:10:40
(UTC+00:00)
Language:

STARS - Orbit

View from above orbital plane
View from above orbital plane
View from above satellite
View from above satellite

Ground track
Ground track

The orbit is defined by the following mean orbital elements,

1 33498U          26072.33261388 +.00000000 +00000-0 +49224-3 0 00005
2 33498  98.1466  15.8352 0010017 119.5813 240.6406 14.94983530    02
Epoch (UTC): 13 March 2026 07:58:57
Eccentricity: 0.0010017
inclination: 98.1466°
perigee height: 575 km
apogee height: 589 km
right ascension of ascending node: 15.8352°
argument of perigee: 119.5813°
revolutions per day: 14.94983530
mean anomaly at epoch: 240.6406°

The dashed part of the orbit path shows where the satellite is in the earth's shadow,  

DLR